This demonstration page uses our WeatherBlox Daily Observations layout. Learn more.

Left ArrowRight Arrow

39.12711, -84.51439

Hourly Observations for October 20, 2020

Temp ( °F °C ) Dew Point ( °F °C ) Humidity (%) Winds ( mph kmh ) Pressure ( in mb ) Visibility ( mi km ) Precip ( " mm )
12:53 am 00:53 Cloudy 55 12.8 53 11.7 93 93 Calm 30.11 1020 10 16 0.01 0.25
1:53 am 01:53 Cloudy with Light Rain 54 12.2 53 11.7 97 97 Calm 30.10 1019 4 6 0.11 2.79
2:27 am 02:27 Cloudy with Rain 54 12.2 53 11.7 97 97 Calm 30.11 1020 2 3 0.06 1.52
2:36 am 02:36 Cloudy with Rain 54 12.2 53 11.7 97 97 NE 3 6 30.10 1019 4 6 0.08 2.03
2:53 am 02:53 Cloudy with Light Rain 54 12.2 53 11.7 97 97 NE 3 6 30.09 1019 8 13 0.10 2.54
3:53 am 03:53 Cloudy with Light Rain 54 12.2 53 11.7 97 97 N 5 7 30.09 1019 10 16 0.00 0.00
4:53 am 04:53 Cloudy with Light Rain 54 12.2 52 11.1 93 93 NW 9 15 30.10 1019 10 16 0.02 0.51
5:53 am 05:53 Cloudy 52 11.1 50 10 93 93 N 8 13 30.11 1020 7 11 0.01 0.25
6:53 am 06:53 Cloudy with Light Rain 51 10.6 49 9.4 92 92 N 6 9 30.15 1021 4 6 0.02 0.51
7:53 am 07:53 Cloudy with Light Rain 50 10 49 9.4 96 96 N 3 6 30.17 1022 3 4 0.01 0.25
8:53 am 08:53 Cloudy with Mist and Fog 51 10.6 49 9.4 92 92 VRB 3 6 30.19 1023 3 4 0.01 0.25
9:41 am 09:41 Cloudy with Mist and Fog 51 10.6 50 10 96 96 NNE 5 7 30.22 1023 2 3 0.03 0.76
9:53 am 09:53 Cloudy with Mist and Fog 52 11.1 50 10 93 93 NNE 6 9 30.21 1023 4 6 0.03 0.76
10:53 am 10:53 Cloudy 52 11.1 50 10 93 93 NNE 5 7 30.22 1024 8 13 0.00 0.00
11:53 am 11:53 Cloudy 52 11.1 50 10 93 93 NNE 7 11 30.23 1024 10 16 0.00 0.00
12:53 pm 12:53 Cloudy 53 11.7 51 10.6 93 93 NE 5 7 30.22 1023 10 16 0.00 0.00
1:53 pm 13:53 Cloudy with Mist and Fog 54 12.2 51 10.6 90 90 NNE 5 7 30.19 1023 5 8 0.00 0.00
2:40 pm 14:40 Cloudy with Mist and Fog 54 12.2 52 11.1 93 93 N 5 7 30.19 1022 2 3 0.00 0.00
2:53 pm 14:53 Cloudy with Mist and Fog 54 12.2 53 11.7 97 97 NNE 6 9 30.19 1022 2 3 0.00 0.00
3:13 pm 15:13 Cloudy with Mist and Fog 54 12.2 52 11.1 93 93 NNE 6 9 30.18 1022 4 6 0.00 0.00
3:53 pm 15:53 Cloudy 55 12.8 52 11.1 90 90 NE 6 9 30.18 1022 10 16 0.00 0.00
4:43 pm 16:43 Cloudy with Mist and Fog 55 12.8 53 11.7 93 93 ENE 3 6 30.17 1022 3 4 0.00 0.00
4:53 pm 16:53 Cloudy with Mist and Fog 55 12.8 53 11.7 93 93 Calm 30.17 1022 3 4 0.00 0.00
5:32 pm 17:32 Cloudy with Mist and Fog 55 12.8 54 12.2 96 96 ENE 3 6 30.17 1022 3 5 0.00 0.00
5:53 pm 17:53 Cloudy with Mist and Fog 55 12.8 54 12.2 96 96 Calm 30.17 1022 4 6 0.00 0.00
6:53 pm 18:53 Cloudy 55 12.8 54 12.2 96 96 Calm 30.16 1021 10 16 0.00 0.00
7:53 pm 19:53 Cloudy 56 13.3 54 12.2 93 93 Calm 30.15 1021 10 16 0.00 0.00
8:53 pm 20:53 Cloudy 56 13.3 54 12.2 93 93 Calm 30.15 1021 10 16 0.00 0.00
9:53 pm 21:53 Cloudy 56 13.3 54 12.2 93 93 Calm 30.13 1020 10 16 0.00 0.00
10:33 pm 22:33 Cloudy with Mist and Fog 55 12.8 54 12.2 96 96 Calm 30.13 1020 2 3 0.00 0.00
10:45 pm 22:45 Cloudy with Mist and Fog 55 12.8 54 12.2 96 96 Calm 30.13 1020 3 5 0.00 0.00
10:53 pm 22:53 Cloudy 56 13.3 54 12.2 93 93 Calm 30.12 1020 7 11 0.00 0.00
11:43 pm 23:43 Cloudy with Mist and Fog 57 13.9 56 13.3 96 96 SSW 6 9 30.12 1020 6 10 0.00 0.00
11:53 pm 23:53 Cloudy with Mist and Fog 56 13.3 55 12.8 97 97 Calm 30.12 1020 4 6 0.00 0.00

Powered by AerisWeather